TimeMDT,TemperatureF,Dew PointF,Humidity,Sea Level PressureIn,VisibilityMPH,Wind Direction,Wind SpeedMPH,Gust SpeedMPH,PrecipitationIn,Events,Conditions,WindDirDegrees,DateUTC
12:15 AM,49.1,20.1,32,30.06,10.0,Calm,Calm,-,N/A,,Clear,0,2014-04-11 06:15:00
12:35 AM,51.3,16.3,25,30.07,10.0,East,4.6,-,N/A,,Clear,100,2014-04-11 06:35:00
12:55 AM,46.9,17.8,31,30.08,10.0,Calm,Calm,-,N/A,,Clear,0,2014-04-11 06:55:00
1:15 AM,45.3,19.4,36,30.08,10.0,NE,3.5,-,N/A,,Clear,50,2014-04-11 07:15:00
1:35 AM,44.8,24.6,45,30.09,10.0,NNE,4.6,-,N/A,,Clear,20,2014-04-11 07:35:00
1:55 AM,45.9,25.0,44,30.10,10.0,NNE,4.6,-,N/A,,Clear,30,2014-04-11 07:55:00
2:15 AM,45.9,25.3,45,30.09,10.0,ENE,3.5,-,N/A,,Clear,60,2014-04-11 08:15:00
2:35 AM,45.9,23.9,42,30.09,10.0,NE,4.6,-,N/A,,Clear,50,2014-04-11 08:35:00
2:55 AM,42.6,20.5,41,30.10,10.0,East,3.5,-,N/A,,Clear,90,2014-04-11 08:55:00
3:15 AM,41.5,18.1,39,30.10,10.0,ENE,6.9,-,N/A,,Clear,60,2014-04-11 09:15:00
3:35 AM,41.4,22.1,46,30.10,10.0,NE,4.6,-,N/A,,Clear,40,2014-04-11 09:35:00
3:55 AM,43.7,22.5,43,30.10,10.0,ENE,5.8,-,N/A,,Clear,60,2014-04-11 09:55:00
4:15 AM,42.1,19.6,41,30.11,10.0,ENE,4.6,-,N/A,,Clear,70,2014-04-11 10:15:00
4:35 AM,42.3,19.9,41,30.11,10.0,ENE,4.6,-,N/A,,Clear,60,2014-04-11 10:35:00
4:55 AM,43.0,19.9,40,30.11,10.0,ENE,6.9,-,N/A,,Clear,70,2014-04-11 10:55:00
5:15 AM,41.5,20.8,44,30.11,10.0,East,4.6,-,N/A,,Clear,90,2014-04-11 11:15:00
5:35 AM,40.3,20.3,45,30.11,10.0,Calm,Calm,-,N/A,,Clear,0,2014-04-11 11:35:00
5:55 AM,38.3,21.2,50,30.12,10.0,ENE,3.5,-,N/A,,Clear,70,2014-04-11 11:55:00
6:15 AM,39.2,22.8,52,30.13,10.0,NNE,4.6,-,N/A,,Clear,30,2014-04-11 12:15:00
6:55 AM,40.6,22.6,49,30.13,10.0,Calm,Calm,-,N/A,,Clear,0,2014-04-11 12:55:00
7:15 AM,41.2,21.9,46,30.14,10.0,East,3.5,-,N/A,,Clear,80,2014-04-11 13:15:00
7:35 AM,42.4,20.8,42,30.14,10.0,NE,4.6,-,N/A,,Clear,50,2014-04-11 13:35:00
7:55 AM,46.0,21.2,37,30.15,10.0,NE,6.9,-,N/A,,Clear,50,2014-04-11 13:55:00
8:15 AM,48.0,23.0,37,30.15,10.0,East,8.1,-,N/A,,Clear,80,2014-04-11 14:15:00
8:35 AM,50.5,23.2,34,30.15,10.0,East,6.9,-,N/A,,Clear,80,2014-04-11 14:35:00
8:55 AM,52.9,23.5,32,30.14,10.0,East,4.6,-,N/A,,Clear,90,2014-04-11 14:55:00
9:15 AM,54.3,24.3,31,30.14,10.0,ESE,3.5,-,N/A,,Clear,120,2014-04-11 15:15:00
9:35 AM,55.4,24.6,30,30.13,10.0,Calm,Calm,-,N/A,,Clear,0,2014-04-11 15:35:00
9:55 AM,57.6,25.0,29,30.13,10.0,Calm,Calm,-,N/A,,Clear,0,2014-04-11 15:55:00
10:15 AM,59.2,22.6,25,30.13,10.0,ENE,4.6,-,N/A,,Clear,60,2014-04-11 16:15:00
10:35 AM,61.5,23.0,23,30.12,10.0,Calm,Calm,-,N/A,,Clear,0,2014-04-11 16:35:00
10:55 AM,63.9,22.3,20,30.11,10.0,East,3.5,-,N/A,,Clear,100,2014-04-11 16:55:00
11:15 AM,67.1,19.0,16,30.10,7.0,East,3.5,-,N/A,,Clear,90,2014-04-11 17:15:00
11:35 AM,67.3,20.5,17,30.09,10.0,Calm,Calm,-,N/A,,Clear,0,2014-04-11 17:35:00
11:55 AM,70.0,20.1,15,30.08,10.0,North,3.5,-,N/A,,Clear,360,2014-04-11 17:55:00
12:15 PM,71.6,17.8,13,30.06,10.0,ESE,4.6,-,N/A,,Clear,110,2014-04-11 18:15:00
12:35 PM,72.1,19.4,14,30.04,10.0,East,3.5,-,N/A,,Clear,100,2014-04-11 18:35:00
12:55 PM,73.0,18.7,13,30.03,10.0,Calm,Calm,-,N/A,,Clear,0,2014-04-11 18:55:00
1:15 PM,75.2,19.0,12,30.02,10.0,Calm,Calm,-,N/A,,Clear,0,2014-04-11 19:15:00
1:35 PM,76.1,19.0,12,30.01,10.0,NNE,3.5,-,N/A,,Clear,30,2014-04-11 19:35:00
1:55 PM,76.3,17.4,11,29.99,10.0,NNE,4.6,-,N/A,,Clear,20,2014-04-11 19:55:00
2:15 PM,77.4,16.5,10,29.98,10.0,NNW,6.9,-,N/A,,Clear,330,2014-04-11 20:15:00
2:35 PM,77.7,16.2,10,29.97,10.0,South,3.5,-,N/A,,Clear,180,2014-04-11 20:35:00
2:55 PM,78.8,16.9,10,29.96,10.0,WSW,4.6,-,N/A,,Clear,250,2014-04-11 20:55:00
3:15 PM,79.0,17.1,10,29.94,10.0,SSW,5.8,-,N/A,,Clear,200,2014-04-11 21:15:00
3:35 PM,79.7,16.9,10,29.93,10.0,SSW,11.5,-,N/A,,Clear,210,2014-04-11 21:35:00
3:55 PM,79.3,16.3,9,29.93,10.0,West,5.8,16.1,N/A,,Clear,280,2014-04-11 21:55:00
4:15 PM,78.4,16.2,10,29.91,10.0,SW,10.4,-,N/A,,Clear,230,2014-04-11 22:15:00
4:35 PM,78.6,16.5,10,29.91,10.0,WNW,5.8,-,N/A,,Clear,290,2014-04-11 22:35:00
4:55 PM,77.4,15.8,10,29.91,10.0,Calm,Calm,-,N/A,,Clear,0,2014-04-11 22:55:00
5:15 PM,77.9,16.5,10,29.90,10.0,SW,3.5,-,N/A,,Clear,220,2014-04-11 23:15:00
5:35 PM,78.1,16.2,10,29.90,10.0,WNW,8.1,-,N/A,,Clear,290,2014-04-11 23:35:00
5:55 PM,77.4,16.7,10,29.90,10.0,West,8.1,-,N/A,,Clear,270,2014-04-11 23:55:00
6:15 PM,76.5,14.9,10,29.90,10.0,West,17.3,23.0,N/A,,Clear,270,2014-04-12 00:15:00
6:35 PM,75.7,14.5,10,29.90,10.0,West,3.5,-,N/A,,Clear,270,2014-04-12 00:35:00
6:55 PM,75.2,14.0,10,29.90,10.0,NW,8.1,-,N/A,,Clear,320,2014-04-12 00:55:00
7:15 PM,74.3,14.0,10,29.90,10.0,West,5.8,-,N/A,,Clear,260,2014-04-12 01:15:00
7:35 PM,73.4,13.8,10,29.90,10.0,WSW,5.8,-,N/A,,Clear,250,2014-04-12 01:35:00
7:55 PM,71.6,15.1,12,29.90,10.0,SW,4.6,-,N/A,,Scattered Clouds,230,2014-04-12 01:55:00
8:15 PM,70.9,11.8,10,29.91,7.0,SW,15.0,18.4,N/A,,Scattered Clouds,230,2014-04-12 02:15:00
8:35 PM,68.4,11.1,11,29.91,10.0,WSW,3.5,-,N/A,,Clear,250,2014-04-12 02:35:00
8:55 PM,68.0,11.1,11,29.91,10.0,West,4.6,-,N/A,,Clear,280,2014-04-12 02:55:00
9:15 PM,66.7,10.4,11,29.92,10.0,Calm,Calm,-,N/A,,Clear,0,2014-04-12 03:15:00
9:35 PM,66.0,10.8,12,29.92,10.0,Calm,Calm,-,N/A,,Clear,0,2014-04-12 03:35:00
9:55 PM,65.5,11.1,12,29.92,10.0,Calm,Calm,-,N/A,,Clear,0,2014-04-12 03:55:00
10:15 PM,59.2,12.7,16,29.92,10.0,NE,5.8,-,N/A,,Clear,50,2014-04-12 04:15:00
10:35 PM,60.1,15.1,17,29.92,10.0,NNE,6.9,-,N/A,,Clear,30,2014-04-12 04:35:00
10:55 PM,57.9,18.1,21,29.92,10.0,NNE,5.8,-,N/A,,Clear,20,2014-04-12 04:55:00
11:15 PM,57.4,16.9,21,29.92,10.0,NNE,10.4,-,N/A,,Clear,20,2014-04-12 05:15:00
11:35 PM,56.7,17.2,21,29.91,10.0,NNE,9.2,-,N/A,,Clear,20,2014-04-12 05:35:00
11:55 PM,55.9,16.7,21,29.91,10.0,NNE,10.4,-,N/A,,Clear,30,2014-04-12 05:55:00